Regional Weather Roundup
Issued by NWS

Home | Current Version | Previous Version | Text Only | Print | Product List | Glossary On
Versions: 1 2 3 4 5 6 7 8 9 10 11 12 13 14 15 16 17 18 19 20 21 22 23 24 25 26 27 28 29 30 31 32 33 34 35 36 37 38 39 40 41 42 43 44 45 46 47 48 49 50
000
ASUS43 KFSD 291102
RWRSD

WEATHER ROUNDUP FOR SOUTH DAKOTA
NATIONAL WEATHER SERVICE SIOUX FALLS SD
600 AM CDT FRI APR 29 2016

NOTE: "FAIR" INDICATES FEW OR NO CLOUDS BELOW 12,000 FEET WITH NO
SIGNIFICANT WEATHER AND/OR OBSTRUCTIONS TO VISIBILITY.


SDZ001>005-009-010-012>017-291200-
NORTHWEST AND NORTH CENTRAL SOUTH DAKOTA

CITY           SKY/WX    TMP DP  RH WIND       PRES   REMARKS
BUFFALO          N/A     37  34  89 NE3       30.04F
FAITH            N/A     35  31  85 N3        30.11F
MOBRIDGE       CLOUDY    40  38  93 CALM      30.11F
$$

SDZ012>016-024>037-041>051-057-063-072>074-291200-
SOUTHWEST AND SOUTH CENTRAL SOUTH DAKOTA

CITY           SKY/WX    TMP DP  RH WIND       PRES   REMARKS
RAPID CTY ARPT CLOUDY    36  33  89 CALM      30.11S
PIERRE         CLOUDY    38  36  92 E7        30.11F
CUSTER         CLOUDY    31  29  92 CALM      30.05S FOG
ELLSWORTH AFB  CLOUDY    36  36 100 S5        30.11
PHILIP         CLOUDY    39  35  86 CALM      30.12R
PINE RIDGE     CLOUDY    37  32  82 CALM      30.11S
WINNER         CLOUDY    42  39  89 S3        30.13R
$$

SDZ004>011-016>023-039-040-291200-
NORTHEAST SOUTH DAKOTA

CITY           SKY/WX    TMP DP  RH WIND       PRES   REMARKS
ABERDEEN       CLEAR     33  31  92 CALM      30.16S FOG
WATERTOWN      CLOUDY    34  32  92 NE3       30.14F FOG
BROOKINGS      CLEAR     35  34  96 CALM      30.14R
SISSETON         N/A     38  36  92 W3        30.16S
$$

SDZ017-020-022-023-036>040-048>070-291200-
SOUTHEAST SOUTH DAKOTA

CITY           SKY/WX    TMP DP  RH WIND       PRES   REMARKS
SIOUX FALLS    CLOUDY    40  37  89 NE3       30.14R
HURON          CLOUDY    38  37  97 CALM      30.17R
MITCHELL       CLOUDY    40  37  89 NE3       30.16S
YANKTON        CLOUDY    39  37  93 NE3       30.13S
$$

ABBREVIATIONS USED IN REMARKS
   TC - TEMPERATURE IN CELSIUS
  WCI - WIND CHILL INDEX
   HX - HEAT INDEX
  VSB - VISIBILITY





USA.gov is the U.S. government's official web portal to all federal, state and local government web resources and services.